Find Kosmos-2205

NORAD ID: 22057 Int'l Des: 1992-047 Owner: VVSR Country: RU Constellation: GLONASS operational
MEOCIRCULAR

Live Position

Loading 3D Globe...

About Kosmos-2205

Description loading...

Upcoming Passes

Passes for default location (London). Set your location on the main map for personalized predictions.

Altitude History

Loading altitude history...

Two-Line Element Set

1 22057U 92047B 26101.83899627 .00000011 00000-0 00000-0 0 9992
2 22057 64.2014 304.6302 0016334 347.3782 9.3806 2.13102728262118
Epoch: Apr 11, 2026 • Age: 131 hours

Current Status

Altitude 19167.2 km
Velocity 3.95 km/s
Sub-Earth Point -33.58°S, 166.38°W
Launch Date Jul 30, 1992
Age 33.7 years
Type other

Technical Details

Classification Payload
Mass 1300.00 kg
Dry Mass 1200.00 kg
Total Mass 1300.00 kg
Length 4.00 m
Diameter 1.50 m
Span 7.80 m
Shape Cyl + Ant + 2 Pan
Manufacturer POL
Bus Type Uragan
Phase Status In Orbit
Owner/State VVSR/RU

Most Searched